Flag for Portugal Weather past 2 weeks in Leiria, Portugal

Now
57 °F

Clear.


Feels Like: 57 °F
Forecast: 52 / 79 °F
Wind: 2 mph from South

Location: Monte Real Mil.

Current Time: Oct 25, 2014 at 8:51:34 AM

Latest Report: Oct 25, 2014 at 8:00 AM


Visibility: 4 mi

Pressure: 30.01 "Hg

Humidity: 94%

Dew point: 55 °F

Location of LeiriaLocation

Historic Weather in Leiria — Graph

°F

Leiria temperature yesterday

Maximum temperature yesterday: 84 °F (at 3:00 PM)
Minimum temperature yesterday: 63 °F (at 10:00 AM)
Average temperature yesterday: 74 °F

Past Weeks' High & Low Weather Summary

 TemperatureHumidityPressure
High86 °F (Oct 20, 3:00 PM)100% (Oct 10, 8:00 AM)30.33 "Hg (Oct 10, 8:00 AM)
Low54 °F (Oct 10, 7:00 AM)37% (Oct 24, 3:00 PM)29.50 "Hg (Oct 12, 8:00 AM)
Average67 °F80%29.96 "Hg
* Reported Oct 10 7:00 AM — Oct 25 7:00 AM, Leiria, Weather by CustomWeather, © 2014

Note: Actual official high and low records may vary slightly from our data, if they occured in-between our weather recording intervals... More about our weather records

Advertising

Leiria weather history for previous 24 hours

 ConditionsComfort  
Time TempWeatherWind HumidityBarometerVisibility
7:00 AM
Oct 25
59 °FClear.2 mph94%29.98 "Hg4 mi
5:00 AM59 °FClear.2 mph94%29.98 "Hg4 mi
4:00 AM59 °FClear.2 mph100%29.98 "Hg4 mi
1:00 AM63 °FClear.1 mph94%30.01 "Hg4 mi
12:00 AM64 °FClear.1 mph94%30.01 "Hg10 mi
11:00 PM
Oct 24
64 °FClear.1 mph94%30.01 "Hg10 mi
10:00 PM66 °FClear.1 mph88%30.01 "Hg10 mi
9:00 PM66 °FClear.2 mph88%30.01 "Hg10 mi
8:00 PM68 °FClear.2 mph83%30.01 "Hg10 mi
7:00 PM73 °FSunny.2 mph78%30.01 "Hg10 mi
6:00 PM75 °FSunny.3 mph69%30.01 "Hg10 mi
5:00 PM81 °FSunny.6 mph58%30.01 "Hg10 mi
4:00 PM84 °FPassing clouds.3 mph43%30.01 "HgN/A
3:00 PM84 °FSunny.2 mph37%30.01 "Hg10 mi
2:00 PM82 °FPassing clouds.3 mph45%30.04 "HgN/A
1:00 PM81 °FSunny.1 mph54%30.07 "Hg10 mi
12:00 PM77 °FSunny.3 mph54%30.07 "Hg10 mi
11:00 AM72 °FSunny.1 mph57%30.09 "Hg10 mi
10:00 AM63 °FSunny.1 mph83%30.07 "Hg10 mi
Weather by CustomWeather, © 2014

See weather overviewHow to use our weather pages